Flag for Malaysia Weather past 2 weeks in Kuching, Malaysia

Now
77 °F

Light rain. Partly cloudy.


Feels Like: 78 °F
Forecast: 76 / 82 °F
Wind: 3 mph from Southeast

Location: Kuching Airport

Current Time: Jan 31, 2015 at 4:49:04 AM

Latest Report: Jan 31, 2015 at 4:30 AM


Visibility: N/A

Pressure: 29.86 "Hg

Humidity: 89%

Dew point: 73 °F

Location of KuchingLocation

Historic Weather in Kuching — Graph

°F

Kuching temperature yesterday

Maximum temperature yesterday: 88 °F (at 1:30 PM)
Minimum temperature yesterday: 72 °F (at 3:30 AM)
Average temperature yesterday: 79 °F

Past Weeks' High & Low Weather Summary

 TemperatureHumidityPressure
High88 °F (Jan 28, 12:00 PM)100% (Jan 17, 2:30 AM)30.07 "Hg (Jan 17, 2:30 AM)
Low72 °F (Jan 21, 10:00 PM)55% (Jan 27, 4:30 PM)29.77 "Hg (Jan 16, 3:30 PM)
Average77 °F87%29.91 "Hg
* Reported Jan 16 3:00 AM — Jan 31 3:30 AM, Kuching, Weather by CustomWeather, © 2014

Note: Actual official high and low records may vary slightly from our data, if they occured in-between our weather recording intervals... More about our weather records

Advertising

Kuching weather history for previous 24 hours

 ConditionsComfort  
Time TempWeatherWind HumidityBarometerVisibility
3:30 AM
Jan 31
77 °FPartly cloudy.8 mph89%29.86 "HgN/A
3:00 AM77 °FPartly cloudy.1 mph94%29.89 "HgN/A
2:30 AM77 °FPartly cloudy.3 mph94%29.89 "HgN/A
2:00 AM77 °FPartly cloudy.1 mph94%29.89 "HgN/A
1:30 AM79 °FPartly cloudy.No wind89%29.92 "HgN/A
1:00 AM79 °FPartly cloudy.No wind89%29.92 "HgN/A
12:30 AM79 °FPartly cloudy.3 mph89%29.92 "HgN/A
12:00 AM79 °FPartly cloudy.1 mph89%29.92 "HgN/A
11:30 PM
Jan 30
79 °FPartly cloudy.No wind89%29.92 "HgN/A
11:00 PM79 °FPartly cloudy.1 mph89%29.92 "HgN/A
10:30 PM79 °FLight rain. Partly cloudy.2 mph89%29.92 "HgN/A
10:00 PM79 °FLight rain. Partly cloudy.3 mph89%29.92 "HgN/A
9:30 PM81 °FPartly cloudy.3 mph84%29.92 "HgN/A
9:00 PM81 °FPassing clouds.6 mph84%29.89 "HgN/A
8:30 PM81 °FPassing clouds.6 mph84%29.89 "HgN/A
8:00 PM81 °FPassing clouds.7 mph84%29.89 "HgN/A
7:30 PM81 °FPassing clouds.7 mph84%29.86 "HgN/A
7:00 PM82 °FPartly cloudy.10 mph79%29.86 "HgN/A
6:30 PM82 °FBroken clouds.12 mph79%29.86 "HgN/A
6:00 PM84 °FBroken clouds.12 mph70%29.83 "HgN/A
5:30 PM84 °FBroken clouds.8 mph70%29.83 "HgN/A
5:00 PM84 °FBroken clouds.12 mph70%29.83 "HgN/A
4:30 PM86 °FBroken clouds.12 mph66%29.83 "HgN/A
4:00 PM86 °FBroken clouds.10 mph62%29.83 "HgN/A
3:30 PM86 °FBroken clouds.12 mph62%29.83 "HgN/A
3:00 PM86 °FBroken clouds.12 mph62%29.83 "HgN/A
2:30 PM86 °FBroken clouds.12 mph62%29.86 "HgN/A
2:00 PM88 °FBroken clouds.9 mph62%29.86 "HgN/A
1:30 PM88 °FBroken clouds.8 mph62%29.89 "HgN/A
1:00 PM86 °FBroken clouds.8 mph66%29.89 "HgN/A
12:30 PM84 °FBroken clouds.7 mph70%29.92 "HgN/A
12:00 PM84 °FBroken clouds.6 mph74%29.92 "HgN/A
11:30 AM84 °FBroken clouds.6 mph74%29.92 "HgN/A
11:00 AM82 °FBroken clouds.3 mph79%29.95 "HgN/A
10:30 AM81 °FBroken clouds.1 mph84%29.95 "HgN/A
10:00 AM79 °FBroken clouds.2 mph84%29.95 "HgN/A
9:30 AM77 °FBroken clouds.2 mph89%29.95 "HgN/A
9:00 AM77 °FBroken clouds.1 mph89%29.95 "HgN/A
8:30 AM75 °FBroken clouds.2 mph94%29.92 "HgN/A
8:00 AM75 °FBroken clouds.3 mph89%29.92 "HgN/A
7:30 AM73 °FLight rain. Broken clouds.2 mph94%29.89 "HgN/A
7:00 AM73 °FLight rain. Broken clouds.2 mph94%29.89 "HgN/A
6:30 AM73 °FLight rain. Partly cloudy.1 mph94%29.89 "HgN/A
6:00 AM73 °FLight rain. Partly cloudy.1 mph94%29.89 "HgN/A
5:30 AM73 °FLight rain. Partly cloudy.2 mph94%29.89 "HgN/A
5:00 AM73 °FPartly cloudy.No wind94%29.86 "HgN/A
4:30 AM73 °FPartly cloudy.1 mph94%29.86 "HgN/A
4:00 AM72 °FPartly cloudy.No wind100%29.86 "HgN/A
Weather by CustomWeather, © 2014

See weather overviewHow to use our weather pages